Elbow Lake, MN

8:36 PM CST on February 10, 2016 (GMT -0600)
Elbow Lake

Weather History for KY63 - January, 2012

Change the Weather History Date:

Thursday, January 26, 2012

  Actual Average (KFFM) Record (KFFM)
Temperature  
Mean Temperature 27 °F -  
Max Temperature 35 °F 15 °F 41 °F (2006)
Min Temperature 19 °F -5 °F -31 °F (1950)
Degree Days  
Heating Degree Days 38    
Moisture  
Dew Point 26 °F    
Average Humidity 85    
Maximum Humidity 100    
Minimum Humidity 60    
Precipitation  
Precipitation 0.00 in - - ()
Sea Level Pressure  
Sea Level Pressure 29.72 in    
Wind  
Wind Speed 13 mph (West)    
Max Wind Speed 25 mph    
Max Gust Speed 31 mph    
Visibility 10 miles    
Events      
Averages and records for this station are not official NWS values.
T = Trace of Precipitation, MM = Missing Value Source: NWS Daily Summary

Daily Weather History Graph

Daily Weather History Graph

Search for Another Location

Airport or City:

Trip Planner

Search our weather history database for the weather conditions in past years. The results will help you decide how hot, cold, wet, or windy it might be!

Date:

Astronomy

Jan. 26, 2012 Rise Set
Actual Time 7:53 AM CST 5:19 PM CST
Civil Twilight 7:20 AM CST 5:52 PM CST
Nautical Twilight 6:44 AM CST 6:28 PM CST
Astronomical Twilight 6:09 AM CST 7:04 PM CST
Moon 9:06 AM CST (1/26) 9:30 PM CST (1/26)
Length of Visible Light 10h 31m
Length of Day
9h 26m
Waxing Crescent, 12% of the Moon is Illuminated
Jan 26
Waxing Crescent
Jan 30
First Quarter
Feb 7
Full
Feb 14
Last Quarter
Feb 21
New

Hourly Weather History & Observations

Time (CST) Temp. Windchill Dew Point Humidity Pressure Visibility Wind Dir Wind Speed Gust Speed Precip Events Conditions
12:15 AM 26.6 °F 14.3 °F 26.6 °F 100% 29.68 in 10.0 mi South 16.1 mph - N/A   Scattered Clouds
12:35 AM 26.6 °F 15.7 °F 24.8 °F 93% 29.67 in 10.0 mi South 12.7 mph - N/A   Clear
12:55 AM 26.6 °F 16.2 °F 24.8 °F 93% 29.67 in 10.0 mi SSE 11.5 mph - N/A   Clear
1:15 AM 26.6 °F 15.7 °F 24.8 °F 93% 29.65 in 10.0 mi SSE 12.7 mph 18.4 mph N/A   Clear
1:35 AM 26.6 °F 15.7 °F 23.0 °F 86% 29.67 in 10.0 mi South 12.7 mph - N/A   Clear
1:55 AM 26.6 °F 18.2 °F 23.0 °F 86% 29.67 in 10.0 mi SSE 8.1 mph - N/A   Clear
2:15 AM 24.8 °F 15.3 °F 23.0 °F 93% 29.67 in 10.0 mi SSE 9.2 mph - N/A   Clear
2:35 AM 23.0 °F 13.1 °F 21.2 °F 93% 29.67 in 10.0 mi South 9.2 mph - N/A   Clear
2:55 AM 23.0 °F 12.4 °F 21.2 °F 93% 29.67 in 10.0 mi SSE 10.4 mph - N/A   Clear
3:15 AM 21.2 °F 10.1 °F 21.2 °F 100% 29.65 in 10.0 mi South 10.4 mph - N/A   Clear
3:35 AM 23.0 °F 13.9 °F 21.2 °F 93% 29.65 in 10.0 mi SSE 8.1 mph - N/A   Clear
3:55 AM 21.2 °F 10.1 °F 19.4 °F 93% 29.66 in 10.0 mi South 10.4 mph - N/A   Clear
4:15 AM 21.2 °F 12.6 °F 21.2 °F 100% 29.65 in 10.0 mi South 6.9 mph - N/A   Clear
4:35 AM 21.2 °F 10.9 °F 19.4 °F 93% 29.67 in 10.0 mi South 9.2 mph - N/A   Clear
4:55 AM 21.2 °F 11.7 °F 19.4 °F 93% 29.67 in 10.0 mi South 8.1 mph - N/A   Clear
5:15 AM 19.4 °F 9.5 °F 19.4 °F 100% 29.67 in 10.0 mi South 8.1 mph - N/A   Clear
5:35 AM 21.2 °F 11.7 °F 21.2 °F 100% 29.67 in 10.0 mi SW 8.1 mph - N/A   Scattered Clouds
5:55 AM 19.4 °F 9.5 °F 17.6 °F 93% 29.67 in 10.0 mi SSW 8.1 mph - N/A   Overcast
6:15 AM 23.0 °F 14.7 °F 21.2 °F 93% 29.67 in 10.0 mi SSW 6.9 mph - N/A   Overcast
6:35 AM 28.4 °F 21.2 °F 24.8 °F 86% 29.68 in 10.0 mi WSW 6.9 mph - N/A   Mostly Cloudy
6:55 AM 28.4 °F 19.1 °F 26.6 °F 93% 29.69 in 10.0 mi West 10.4 mph - N/A   Scattered Clouds
7:15 AM 32.0 °F 23.6 °F 28.4 °F 87% 29.69 in 10.0 mi WNW 10.4 mph - N/A   Overcast
7:35 AM 32.0 °F 23.6 °F 30.2 °F 93% 29.70 in 10.0 mi WNW 10.4 mph - N/A   Mostly Cloudy
7:55 AM 32.0 °F 21.6 °F 30.2 °F 93% 29.70 in 10.0 mi WNW 15.0 mph 19.6 mph N/A   Mostly Cloudy
8:15 AM 33.8 °F 23.9 °F 32.0 °F 93% 29.71 in 10.0 mi NW 15.0 mph 20.7 mph N/A   Scattered Clouds
8:35 AM 33.8 °F 23.2 °F 32.0 °F 93% 29.71 in 10.0 mi NW 17.3 mph - N/A   Scattered Clouds
8:55 AM 32.0 °F 21.2 °F 30.2 °F 93% 29.72 in 10.0 mi NW 16.1 mph - N/A   Clear
9:15 AM 32.0 °F 21.6 °F 30.2 °F 93% 29.72 in 10.0 mi NW 15.0 mph - N/A   Clear
9:35 AM 33.8 °F 23.9 °F 30.2 °F 87% 29.72 in 10.0 mi NW 15.0 mph - N/A   Clear
9:55 AM 32.0 °F 22.5 °F 30.2 °F 93% 29.73 in 10.0 mi NW 12.7 mph - N/A   Clear
10:15 AM 33.8 °F 23.5 °F 30.2 °F 87% 29.74 in 10.0 mi NW 16.1 mph - N/A   Clear
10:35 AM 33.8 °F 23.5 °F 30.2 °F 87% 29.74 in 10.0 mi NW 16.1 mph 24.2 mph N/A   Clear
10:55 AM 35.6 °F 25.5 °F 30.2 °F 81% 29.74 in 10.0 mi NW 17.3 mph 23.0 mph N/A   Clear
11:15 AM 33.8 °F 23.5 °F 30.2 °F 87% 29.75 in 10.0 mi NW 16.1 mph - N/A   Clear
11:35 AM 35.6 °F 25.9 °F 30.2 °F 81% 29.76 in 10.0 mi NW 16.1 mph 26.5 mph N/A   Clear
11:55 AM 35.6 °F 24.0 °F 30.2 °F 81% 29.76 in 10.0 mi NW 23.0 mph - N/A   Mostly Cloudy
12:15 PM 35.6 °F 24.0 °F 30.2 °F 81% 29.76 in 10.0 mi NW 23.0 mph 29.9 mph N/A   Mostly Cloudy
12:35 PM 35.6 °F 24.8 °F 30.2 °F 81% 29.76 in 10.0 mi NW 19.6 mph 28.8 mph N/A   Scattered Clouds
12:55 PM 35.6 °F 23.4 °F 30.2 °F 81% 29.76 in 10.0 mi NW 25.3 mph 31.1 mph N/A   Scattered Clouds
1:15 PM 35.6 °F 23.7 °F 28.4 °F 75% 29.76 in 10.0 mi NW 24.2 mph 31.1 mph N/A   Clear
1:35 PM 35.6 °F 23.7 °F 26.6 °F 70% 29.75 in 10.0 mi NW 24.2 mph 31.1 mph N/A   Clear
1:55 PM 35.6 °F 24.5 °F 26.6 °F 70% 29.75 in 10.0 mi NNW 20.7 mph 27.6 mph N/A   Clear
2:15 PM 35.6 °F 24.2 °F 26.6 °F 70% 29.76 in 10.0 mi NW 21.9 mph 28.8 mph N/A   Clear
2:35 PM 35.6 °F 24.2 °F 26.6 °F 70% 29.77 in 10.0 mi NW 21.9 mph 27.6 mph N/A   Scattered Clouds
2:55 PM 35.6 °F 24.8 °F 24.8 °F 65% 29.76 in 10.0 mi NW 19.6 mph 27.6 mph N/A   Scattered Clouds
3:15 PM 35.6 °F 25.2 °F 24.8 °F 65% 29.77 in 10.0 mi NW 18.4 mph - N/A   Clear
3:35 PM 35.6 °F 24.8 °F 23.0 °F 60% 29.77 in 10.0 mi NW 19.6 mph 24.2 mph N/A   Clear
3:55 PM 35.6 °F 25.5 °F 23.0 °F 60% 29.77 in 10.0 mi NW 17.3 mph - N/A   Clear
4:15 PM 33.8 °F 22.8 °F 23.0 °F 65% 29.77 in 10.0 mi NW 18.4 mph 23.0 mph N/A   Clear
4:35 PM 33.8 °F 24.3 °F 23.0 °F 65% 29.78 in 10.0 mi NW 13.8 mph - N/A   Clear
4:55 PM 33.8 °F 25.3 °F 23.0 °F 65% 29.78 in 10.0 mi NW 11.5 mph - N/A   Clear
5:15 PM 32.0 °F 24.2 °F 23.0 °F 69% 29.78 in 10.0 mi WNW 9.2 mph - N/A   Clear
5:35 PM 30.2 °F 22.6 °F 24.8 °F 80% 29.78 in 10.0 mi WNW 8.1 mph - N/A   Clear
5:55 PM 28.4 °F 20.4 °F 23.0 °F 80% 29.78 in 10.0 mi WNW 8.1 mph - N/A   Clear
6:15 PM 28.4 °F 19.1 °F 23.0 °F 80% 29.78 in 10.0 mi West 10.4 mph - N/A   Clear
6:35 PM 28.4 °F 20.4 °F 21.2 °F 74% 29.78 in 10.0 mi West 8.1 mph - N/A   Clear
6:55 PM 26.6 °F 18.2 °F 21.2 °F 80% 29.78 in 10.0 mi West 8.1 mph - N/A   Clear
7:15 PM 26.6 °F 20.0 °F 21.2 °F 80% 29.77 in 10.0 mi West 5.8 mph - N/A   Clear
7:35 PM 26.6 °F 22.6 °F 21.2 °F 80% 29.77 in 10.0 mi WSW 3.5 mph - N/A   Clear
7:55 PM 26.6 °F 20.0 °F 21.2 °F 80% 29.77 in 10.0 mi SW 5.8 mph - N/A   Clear
8:15 PM 23.0 °F 14.7 °F 19.4 °F 86% 29.77 in 10.0 mi SW 6.9 mph - N/A   Clear
8:35 PM 23.0 °F 13.9 °F 19.4 °F 86% 29.77 in 10.0 mi WSW 8.1 mph - N/A   Clear
8:55 PM 23.0 °F 15.8 °F 19.4 °F 86% 29.78 in 10.0 mi WSW 5.8 mph - N/A   Clear
9:15 PM 21.2 °F 14.9 °F 19.4 °F 93% 29.78 in 10.0 mi WSW 4.6 mph - N/A   Clear
9:35 PM 23.0 °F 15.8 °F 19.4 °F 86% 29.78 in 10.0 mi SW 5.8 mph - N/A   Clear
9:55 PM 21.2 °F 12.6 °F 17.6 °F 86% 29.78 in 10.0 mi WSW 6.9 mph - N/A   Clear
10:15 PM 21.2 °F 14.9 °F 17.6 °F 86% 29.78 in 10.0 mi WSW 4.6 mph - N/A   Clear
10:35 PM 23.0 °F 18.4 °F 19.4 °F 86% 29.78 in 10.0 mi SW 3.5 mph - N/A   Clear
10:55 PM 23.0 °F 15.8 °F 19.4 °F 86% 29.78 in 10.0 mi SW 5.8 mph - N/A   Clear
11:15 PM 21.2 °F 13.6 °F 17.6 °F 86% 29.78 in 10.0 mi SW 5.8 mph - N/A   Clear
11:35 PM 23.0 °F - 19.4 °F 86% 29.77 in 10.0 mi Calm Calm - N/A   Clear
11:55 PM 21.2 °F 13.6 °F 17.6 °F 86% 29.77 in 10.0 mi South 5.8 mph - N/A   Clear